Flag for Japan Weather past 2 weeks in Hiroshima, Japan

Now
91 °F

Scattered clouds.


Feels Like: 102 °F
Forecast: 76 / 95 °F
Wind: 7 mph from Southeast

Location: Iwakuni Marine Corps Air Station

Current Time: Jul 25, 2014 at 4:19:11 PM

Latest Report: Jul 25, 2014 at 3:55 PM


Visibility: N/A

Pressure: 29.83 "Hg

Humidity: 60%

Dew point: 75 °F

Location of HiroshimaLocation

Historic Weather in Hiroshima — Graph

°F

Hiroshima temperature yesterday

Maximum temperature yesterday: 92 °F (at 3:55 PM)
Minimum temperature yesterday: 80 °F (at 4:55 AM)
Average temperature yesterday: 86 °F

Past Weeks' High & Low Weather Summary

 TemperatureHumidityPressure
High94 °F (Jul 23, 2:55 PM)88% (Jul 16, 2:55 AM)29.96 "Hg (Jul 16, 2:55 AM)
Low70 °F (Jul 12, 4:55 AM)37% (Jul 11, 4:55 PM)29.21 "Hg (Jul 10, 2:55 PM)
Average80 °F71%29.79 "Hg
* Reported Jul 10 2:55 PM — Jul 25 2:55 PM, Hiroshima, Weather by CustomWeather, © 2014

Note: Actual official high and low records may vary slightly from our data, if they occured in-between our weather recording intervals... More about our weather records

Advertising

Hiroshima weather history for previous 24 hours

 ConditionsComfort  
Time TempWeatherWind HumidityBarometerVisibility
2:55 PM
Jul 25
92 °FPassing clouds.9 mph54%29.83 "HgN/A
1:55 PM90 °FPassing clouds.8 mph61%29.84 "HgN/A
12:55 PM89 °FPassing clouds.7 mph61%29.85 "HgN/A
11:55 AM88 °FPassing clouds.6 mph65%29.85 "HgN/A
10:55 AM88 °FPassing clouds.6 mph65%29.86 "HgN/A
9:55 AM86 °FPassing clouds.7 mph67%29.86 "HgN/A
8:55 AM85 °FPassing clouds.6 mph70%29.85 "HgN/A
7:55 AM85 °FPassing clouds.7 mph70%29.85 "HgN/A
6:55 AM83 °FHaze.3 mph72%29.85 "Hg6 mi
5:55 AM79 °FPassing clouds.No wind84%29.84 "HgN/A
4:55 AM79 °FPassing clouds.3 mph84%29.83 "HgN/A
3:55 AM80 °FPassing clouds.No wind81%29.82 "HgN/A
2:55 AM81 °FPassing clouds.7 mph79%29.81 "HgN/A
1:55 AM82 °FPassing clouds.No wind77%29.82 "HgN/A
12:55 AM82 °FPassing clouds.No wind77%29.82 "HgN/A
11:55 PM
Jul 24
83 °FPassing clouds.3 mph74%29.81 "HgN/A
10:55 PM84 °FPassing clouds.5 mph72%29.81 "HgN/A
9:55 PM82 °FPassing clouds.No wind79%29.80 "HgN/A
8:55 PM83 °FPassing clouds.5 mph77%29.77 "HgN/A
7:55 PM84 °FPassing clouds.7 mph72%29.76 "HgN/A
6:55 PM85 °FScattered clouds.8 mph70%29.75 "HgN/A
5:55 PM90 °FScattered clouds.No wind57%29.73 "HgN/A
4:55 PM91 °FBroken clouds.5 mph57%29.72 "HgN/A
Weather by CustomWeather, © 2014

See weather overviewHow to use our weather pages